Location: Unspecified
(0.0000°N, 0.0000°E)
Time: 17:52:42
(UTC+00:00)

Dynamics Explorer 1 - Visible Passes

Search period start: 21 January 2019 00:00
Search period end: 31 January 2019 00:00
Orbit: 476 x 23242 km, 90.1° (Epoch: 20 January)

Date Brightness Start Highest point End Pass type
(mag) Time Alt. Az. Time Alt. Az. Time Alt. Az.
21 Jan 11.9 03:53:54 10° NNE 05:29:48 70° SE 08:21:54 10° SSW visible
22 Jan 13.5 01:47:48 10° E 03:32:31 27° SE 04:54:41 10° S visible
23 Jan 12.0 03:35:10 10° NE 05:16:39 68° SE 08:04:30 10° SSW visible
24 Jan 13.5 01:38:55 10° E 03:17:48 25° SE 04:34:24 10° SSE visible
25 Jan 12.0 03:16:39 10° NE 05:03:41 66° SE 07:46:52 10° SSW visible
26 Jan 13.5 01:30:37 10° ESE 03:02:53 23° SE 04:13:52 10° SSE visible
27 Jan 12.1 02:58:24 10° NE 04:50:50 63° SE 07:29:02 10° SSW visible
28 Jan 13.5 01:22:53 10° ESE 02:47:47 22° SE 03:52:59 10° SSE visible
28 Jan 9.4 18:54:10 10° SW 18:57:08 13° WSW 18:59:13 10° W visible
29 Jan 12.2 02:40:27 10° NE 04:38:01 61° SE 07:10:59 10° SSW visible
30 Jan 13.5 01:15:45 10° ESE 02:32:30 20° SE 03:31:42 10° SSE visible
30 Jan 11.5 05:42:07 10° N 06:41:42 66° WNW 09:31:18 10° SW visible
30 Jan 9.1 18:32:52 10° SSW 18:37:28 17° WSW 18:40:09 10° WNW visible
